Tracking 28794 objects as of 19-Apr-2024
HD Live streaming from Space Station
objects crossing your sky now

DELTA 1 DEB

Track DELTA 1 DEB now!
10-day predictions


NORAD ID: 42635
Int'l Code: 1975-052LU
Perigee: 1,022.1 km
Apogee: 1,090.1 km
Inclination: 99.8 °
Period: 106.2 minutes
Semi major axis: 7427 km
RCS: Unknown
Launch date: June 12, 1975
Source: United States (US)
Launch site: AIR FORCE WESTERN TEST RANGE (AFWTR)

Note: This is SATELLITE DEBRIS
Your satellite tracking list
Your tracking list is empty




NASA's NSSDC Master Catalog

Two Line Element Set (TLE):
1 42635U 75052LU  24110.60146015  .00000374  00000-0  59021-3 0  9994
2 42635  99.7936  19.6333 0045802  94.7313  23.5564 13.56357474515085
Source of the keplerian elements: AFSPC